NEE-02 KRYSAOR

Last updated on Sat Jul 05 2025 00:03:43 GMT+0000 (Coordinated Universal Time)

1 39441U 13066AB 25185.25684693 .00001540 00000+0 18177-3 0 9997 2 39441 97.8560 123.2511 0070012 128.6514 232.0994 14.84439361624543
UTC large
Height (km)
Speed (km/s)
/
Latitude / Longitude
Inclination (degrees)
Orbital Period (minutes)
Azimuth
Elevation
Range (km)
Doppler Factor

Next 0 passes for location: London (51.5072 / 0.1276)

Sorry there are no passes over London.